Location: Middelsbur
(53.6609°N, 7.5020°E)
Time: 23:01:04
(UTC+00:00)

MOS 1-B Rocket - Pass Details

Date: 06 July 2020
Orbit: 891 x 1605 km, 99.1° (Epoch: 03 August)

Event Time Altitude Azimuth Distance (km) Brightness Sun altitude
Rises 22:29:25 0° 15° (NNE) 4,516 8.6 -12.5°
Reaches altitude 10° 22:32:24 10° 17° (NNE) 3,444 7.8 -12.6°
Maximum altitude 22:40:21 79° 105° (ESE) 1,238 4.5 -12.9°
Enters shadow 22:46:13 14° 191° (SSW) 2,626 5.7 -13.1°
